Date String (YYYY-MM-DD hh:mm:ss) UTC,Instrument flags,absolute air pressure of the measurement (hPa),sample flow rate (lpm),inlet stack bypass flow (lpm),air temperature of the measurement (°C),ambient temperature measured by the external sensor (°C),aerosol sample conditioner tube jacket temperature (°C),OPC LED temperature (°C),internal box temperature (°C),relative humidity of the measurement (%),span deviation,mass concentration of particles derived from Lorenz-Mie calculation of OPC scattering (μg/m³),mass concentration of particles derived from Lorenz-Mie calculation of OPC scattering (μg/m³),mass concentration of particles derived from Lorenz-Mie calculation of OPC scattering (μg/m³)
DateTimeUTC,F1_M11,P_M11,Q1_M11,Q2_M11,T1_M11,T2_M11,T3_M11,T4_M11,T5_M11,U1_M11,ZSPAN_M11,X0_M11,X2_M11,X1_M11
2024-01-01 06:00:00,SystemResetWarning,0831.7,5.00,000.00,021.8,020.6,000.0,030.2,023.2,14.4,0000.0,0014.50,0006.57,0005.82
2024-01-01 06:01:00,SystemResetWarning,0831.7,5.00,000.00,021.8,020.6,000.0,030.2,023.2,14.4,0000.0,0015.10,0006.46,0005.78
2024-01-01 06:02:00,SystemResetWarning,0831.7,5.00,000.00,021.8,020.6,000.0,030.2,023.2,14.4,0000.0,0014.70,0006.39,0005.74
2024-01-01 06:03:00,SystemResetWarning,0831.8,5.00,000.00,021.8,020.6,000.0,030.2,023.2,14.4,0001.1,0014.51,0006.32,0005.71
2024-01-01 06:04:00,SystemResetWarning,0832.0,5.00,000.00,021.8,020.6,000.0,030.2,023.2,14.5,0001.5,0013.35,0006.30,0005.69
2024-01-01 06:05:00,SystemResetWarning,0831.8,5.00,000.00,021.7,020.6,000.0,030.2,023.2,14.4,0000.3,0013.54,0006.29,0005.68
2024-01-01 06:06:00,SystemResetWarning,0832.1,5.00,000.00,021.7,020.7,000.0,030.1,023.1,14.5,0002.6,0013.90,0006.28,0005.69
2024-01-01 06:07:00,SystemResetWarning,0832.3,5.00,000.00,021.7,020.7,000.0,030.1,023.1,14.5,0001.3,0013.86,0006.29,0005.69
2024-01-01 06:08:00,SystemResetWarning,0831.9,5.00,000.00,021.7,020.7,000.0,030.1,023.1,14.5,0001.9,0013.03,0006.32,0005.72
2024-01-01 06:09:00,SystemResetWarning,0831.7,5.01,000.00,021.7,020.7,000.0,030.1,023.1,14.5,0000.5,0013.05,0006.38,0005.75
2024-01-01 06:10:00,SystemResetWarning,0831.7,5.01,000.00,021.7,020.7,000.0,030.1,023.1,14.5,0000.0,0013.11,0006.42,0005.77
2024-01-01 06:11:00,SystemResetWarning,0831.7,5.00,000.00,021.7,020.7,000.0,030.1,023.1,14.5,0000.0,0013.47,0006.46,0005.82
2024-01-01 06:12:00,SystemResetWarning,0831.7,5.00,000.00,021.7,020.7,000.0,030.1,023.1,14.5,0000.0,0013.51,0006.53,0005.85
2024-01-01 06:13:00,SystemResetWarning,0831.7,5.00,000.00,021.7,020.7,000.0,030.1,023.0,14.5,0000.0,0013.47,0006.57,0005.87
2024-01-01 06:14:00,SystemResetWarning,0831.7,5.00,000.00,021.7,020.7,000.0,030.1,023.1,14.5,0000.0,0013.71,0006.64,0005.88
2024-01-01 06:15:00,SystemResetWarning,0831.7,5.00,000.00,021.7,020.7,000.0,030.1,023.0,14.5,0000.0,0013.81,0006.65,0005.88
2024-01-01 06:16:00,SystemResetWarning,0832.0,4.99,000.00,021.7,020.7,000.0,030.1,023.0,14.5,0000.0,0013.88,0006.66,0005.89
2024-01-01 06:17:00,SystemResetWarning,0831.8,5.00,000.00,021.6,020.7,000.0,030.1,023.0,14.5,0000.0,0013.62,0006.68,0005.89
2024-01-01 06:18:00,SystemResetWarning,0831.8,5.01,000.00,021.6,020.7,000.0,030.0,023.0,14.5,0000.0,0013.85,0006.68,0005.89
2024-01-01 06:19:00,SystemResetWarning,0831.7,5.00,000.00,021.6,020.7,000.0,030.0,023.0,14.5,0000.0,0014.05,0006.68,0005.89
2024-01-01 06:20:00,SystemResetWarning,0831.7,5.01,000.00,021.6,020.7,000.0,030.0,023.0,14.5,0000.0,0014.26,0006.66,0005.88
2024-01-01 06:21:00,SystemResetWarning,0831.7,5.00,000.00,021.6,020.7,000.0,030.0,023.0,14.5,0000.0,0014.44,0006.60,0005.87
2024-01-01 06:22:00,SystemResetWarning,0831.7,5.00,000.00,021.6,020.7,000.0,030.0,023.0,14.5,0000.0,0014.81,0006.59,0005.86
2024-01-01 06:23:00,SystemResetWarning,0831.7,4.99,000.00,021.6,020.7,000.0,030.0,023.0,14.5,0000.0,0014.30,0006.53,0005.83
2024-01-01 06:24:00,SystemResetWarning,0831.7,5.00,000.00,021.6,020.6,000.0,030.0,022.9,14.5,0000.0,0013.98,0006.52,0005.81
2024-01-01 06:25:00,SystemResetWarning,0831.7,4.99,000.00,021.6,020.6,000.0,030.0,022.9,14.5,0000.0,0013.97,0006.48,0005.80
2024-01-01 06:26:00,SystemResetWarning,0831.7,5.00,000.00,021.6,020.6,000.0,030.0,022.9,14.5,0000.0,0013.95,0006.43,0005.78
2024-01-01 06:27:00,SystemResetWarning,0831.7,5.00,000.00,021.6,020.6,000.0,030.0,022.9,14.5,0000.0,0013.62,0006.41,0005.77
2024-01-01 06:28:00,SystemResetWarning,0831.6,5.00,000.00,021.6,020.6,000.0,030.0,023.0,14.5,0000.0,0013.84,0006.43,0005.77
2024-01-01 06:29:00,SystemResetWarning,0831.6,5.00,000.00,021.6,020.6,000.0,030.0,023.0,14.5,0000.2,0013.57,0006.43,0005.77
2024-01-01 06:30:00,SystemResetWarning,0831.6,4.99,000.00,021.6,020.6,000.0,030.0,022.9,14.5,0000.0,0013.30,0006.40,0005.77
2024-01-01 06:31:00,SystemResetWarning,0831.6,4.99,000.00,021.6,020.5,000.0,030.0,022.9,14.5,0000.0,0013.75,0006.42,0005.78
2024-01-01 06:32:00,SystemResetWarning,0831.6,4.99,000.00,021.6,020.5,000.0,029.9,022.9,14.5,0000.0,0013.96,0006.46,0005.79
2024-01-01 06:33:00,SystemResetWarning,0831.6,5.00,000.00,021.5,020.5,000.0,029.9,022.9,14.5,0000.0,0012.83,0006.46,0005.80
2024-01-01 06:34:00,SystemResetWarning,0831.6,5.01,000.00,021.5,020.5,000.0,029.9,022.9,14.5,0000.0,0012.58,0006.48,0005.82
2024-01-01 06:35:00,SystemResetWarning,0831.6,5.00,000.00,021.5,020.5,000.0,029.9,022.9,14.5,0000.0,0012.26,0006.50,0005.84
2024-01-01 06:36:00,SystemResetWarning,0831.6,5.00,000.00,021.5,020.4,000.0,029.9,022.9,14.5,0000.0,0012.50,0006.53,0005.85
2024-01-01 06:37:00,SystemResetWarning,0831.5,5.00,000.00,021.5,020.4,000.0,029.9,022.9,14.5,0000.0,0012.63,0006.57,0005.89
2024-01-01 06:38:00,SystemResetWarning,0831.5,5.00,000.00,021.5,020.4,000.0,029.9,022.9,14.5,0000.0,0013.02,0006.61,0005.92
2024-01-01 06:39:00,SystemResetWarning,0831.5,5.00,000.00,021.5,020.4,000.0,029.9,022.9,14.5,0000.0,0012.84,0006.62,0005.93
2024-01-01 06:40:00,SystemResetWarning,0831.5,4.99,000.00,021.5,020.4,000.0,029.9,022.9,14.5,0000.0,0013.05,0006.62,0005.94
2024-01-01 06:41:00,SystemResetWarning,0831.5,4.99,000.00,021.5,020.4,000.0,029.9,022.9,14.6,0000.0,0013.10,0006.66,0005.94
2024-01-01 06:42:00,SystemResetWarning,0831.5,4.99,000.00,021.5,020.4,000.0,029.9,022.9,14.6,0000.0,0013.94,0006.69,0005.95
2024-01-01 06:43:00,SystemResetWarning,0831.5,4.99,000.00,021.5,020.4,000.0,029.9,022.9,14.6,0000.0,0014.20,0006.67,0005.95
2024-01-01 06:44:00,SystemResetWarning,0831.4,4.99,000.00,021.5,020.4,000.0,029.9,022.9,14.6,0002.1,0014.24,0006.66,0005.94
2024-01-01 06:45:00,SystemResetWarning,0831.5,5.00,000.00,021.5,020.4,000.0,029.9,022.9,14.6,0000.7,0014.30,0006.64,0005.95
2024-01-01 06:46:00,SystemResetWarning,0831.4,4.99,000.00,021.5,020.5,000.0,029.9,022.9,14.7,0000.0,0014.25,0006.62,0005.95
2024-01-01 06:47:00,SystemResetWarning,0831.4,5.00,000.00,021.5,020.5,000.0,029.9,022.9,14.7,0000.0,0013.78,0006.62,0005.95
2024-01-01 06:48:00,SystemResetWarning,0831.4,5.00,000.00,021.5,020.5,000.0,029.8,022.9,14.7,0000.0,0014.26,0006.64,0005.95
2024-01-01 06:49:00,SystemResetWarning,0831.3,5.00,000.00,021.5,020.5,000.0,029.8,022.9,14.7,0000.0,0014.25,0006.67,0005.94
2024-01-01 06:50:00,SystemResetWarning,0831.4,5.00,000.00,021.5,020.5,000.0,029.8,022.8,14.7,0000.0,0014.22,0006.65,0005.94
2024-01-01 06:51:00,SystemResetWarning,0831.3,5.00,000.00,021.5,020.5,000.0,029.8,022.8,14.7,0000.0,0013.78,0006.66,0005.94
2024-01-01 06:52:00,SystemResetWarning,0831.3,5.00,000.00,021.5,020.5,000.0,029.8,022.8,14.7,0000.0,0013.57,0006.67,0005.96
2024-01-01 06:53:00,SystemResetWarning,0831.3,5.00,000.00,021.5,020.5,000.0,029.8,022.8,14.7,0000.0,0012.82,0006.64,0005.96
2024-01-01 06:54:00,SystemResetWarning,0831.3,5.00,000.00,021.5,020.6,000.0,029.8,022.8,14.7,0000.0,0012.03,0006.65,0005.96
2024-01-01 06:55:00,SystemResetWarning,0831.3,5.00,000.00,021.5,020.6,000.0,029.8,022.8,14.7,0000.0,0012.02,0006.67,0005.97
2024-01-01 06:56:00,SystemResetWarning,0831.3,5.00,000.00,021.5,020.6,000.0,029.8,022.8,14.7,0000.0,0013.28,0006.74,0005.99
2024-01-01 06:57:00,SystemResetWarning,0831.3,4.99,000.00,021.5,020.5,000.0,029.8,022.8,14.7,0000.0,0014.08,0006.82,0006.01
2024-01-01 06:58:00,SystemResetWarning,0831.3,4.99,000.00,021.5,020.5,000.0,029.8,022.8,14.7,0000.0,0014.45,0006.88,0006.04
2024-01-01 06:59:00,SystemResetWarning,0831.3,5.00,000.00,021.5,020.5,000.0,029.8,022.8,14.7,0000.0,0013.74,0006.87,0006.03
